Weather in L'vovskoe

Russia / Krasnodar Krai     44°59′53″N   38°37′48″E
temp.,
°C
wind,
m/s
gust,
m/s
humid.,
%
clouds,
%
prec.,
mm/h
press.,
hPa
HPBL,
m
19 may, wed
wed1900:00+14sse3379100 0.0 100841
03:00+14wsw3893100 0.3 1009286
06:00+13wnw4997100 13.6 1009422
09:00+15sw410850 19.1 1011854
12:00+19sw10146619 0.2 10131781
15:00+18sw11187268 0.9 10141831
18:00+17sw1016702 0.2 10141393
21:00+15sw815735 0.2 1015971
20 may, thu
thu2000:00+15sw613720 0.0 1015564
03:00+12ssw358515 0.0 101478
06:00+13s23870 0.0 101453
09:00+19ssw2363100 0.0 1014556
12:00+23ese344826 0.0 10131208
15:00+23e55530 0.0 1012832
18:00+22e48675 0.0 1011380
21:00+17ene478495 0.0 1010122
21 may, fri
fri2100:00+15e33918 0.0 100946
03:00+14ese2292100 0.0 100926
06:00+16ese238766 0.0 100853
09:00+23e34625 0.0 1007259
12:00+28ese33480 0.0 1007656
15:00+30ese22440 0.0 1006764
18:00+28e22630 0.0 100552
21:00+21sse228294 0.0 100612
22 may, sat
sat2200:00+20ese22845 0.0 100511
03:00+19ese11885 0.0 100511
06:00+20sse118826 0.0 100611
09:00+25sse2269100 0.0 1006272
12:00+28se456487 0.0 1006500
15:00+27ne236698 0.1 1007538
18:00+26ene467434 0.0 1007344
21:00+21ssw3488100 0.0 100862
23 may, sun
sun2300:00+19w3683100 0.3 1006125
03:00+18w229387 0.3 100731
06:00+17w2493100 0.0 1007163
09:00+21wnw237948 0.1 1007478
12:00+26nw34650 0.0 1006968
15:00+28nnw56555 0.0 10051233
18:00+25wsw3573100 0.0 1007125
21:00+20sw5892100 0.6 1008258